Location: Valasske Mezirici
(49.4670°N, 17.9670°E)
Time: 01:21:00
(UTC+01:00)

ISS - Visible Passes

Search period start: 11 December 2023 00:00
Search period end: 21 December 2023 00:00
Orbit: 415 x 417 km, 51.6° (Epoch: 10 December)

Date Brightness Start Highest point End Pass type
(mag) Time Alt. Az. Time Alt. Az. Time Alt. Az.
16 Dec -0.5 06:10:55 10° SSE 06:12:38 13° SE 06:14:20 10° ESE visible
17 Dec -2.3 06:56:55 10° SW 07:00:06 41° SSE 07:03:16 10° ENE visible
18 Dec -1.7 06:08:29 10° SSW 06:11:23 28° SE 06:14:18 10° E visible
19 Dec -1.1 05:20:19 10° S 05:22:44 19° SE 05:25:09 10° E visible
19 Dec -3.6 06:55:42 10° WSW 06:59:03 78° SSE 07:02:24 10° ENE visible
20 Dec -0.6 04:34:16 12° SE 04:34:16 12° SE 04:35:31 10° ESE visible
20 Dec -3.1 06:07:11 12° SW 06:10:14 56° SSE 06:13:32 10° ENE visible
